Location: Alphen
(52.1351°N, 4.6549°E)
Time: 01:00:49
(UTC+00:00)

USA 308 - Pass Details

Date: 27 January 2021
Orbit: 565 x 581 km, 54.0° (Epoch: 25 February)

Event Time Altitude Azimuth Distance (km) Brightness Sun altitude
Exits shadow 06:29:11 - 256° (WSW) 2,019 5.2 -9.2°
Reaches altitude 10° 06:29:35 10° 256° (WSW) 1,860 5.0 -9.2°
Maximum altitude 06:33:50 83° 346° (NNW) 576 2.9 -8.5°
Drops below altitude 10° 06:38:05 10° 74° (ENE) 1,867 6.4 -7.9°
Sets 06:40:20 0° 75° (ENE) 2,767 7.4 -7.6°
